Tracking 29747 objects as of 10-Oct-2024
HD Live streaming from Space Station
objects crossing your sky now

SPIP

Track SPIP now!
10-day predictions


NORAD ID: 58298
Int'l Code: 2023-174AU
Perigee: 508.7 km
Apogee: 524.2 km
Inclination: 97.4 °
Period: 94.8 minutes
Semi major axis: 6887 km
RCS: Unknown
Launch date: November 11, 2023
Source: (BEL)
Launch site: AIR FORCE WESTERN TEST RANGE (AFWTR)
Your satellite tracking list
Your tracking list is empty




NASA's NSSDC Master Catalog

Two Line Element Set (TLE):
1 58298U 23174AU  24283.84890022  .00012092  00000-0  58211-3 0  9995
2 58298  97.4485 356.3606 0011267 182.9711 177.1459 15.18855287 51073
Source of the keplerian elements: AFSPC